Simultaneous Nadir Overpasses (SNOs) Predictions

Prediction of SNOs near US between AQUA and NPP Satellite Orbit:

Table of predicted SNOs near US for the next 10.0 days since TLE Epoch: 7/10/2015
Index Date (AQUA) Time (AQUA) AQUA Lat,Lon Date (NPP) Time (NPP) NPP Lat,Lon Distance(km) Time Diff (sec)
1 07/11/2015 18:17:27 49.96, -80.21 07/11/2015 18:14:48 49.67, -81.72 112.85 159
2 07/11/2015 19:56:20 49.96,-104.93 07/11/2015 19:56:16 49.57,-107.05 158.12 4
3 07/11/2015 21:29:08 28.14,-122.71 07/11/2015 21:31:28 27.60,-125.12 244.55 140
4 07/14/2015 07:46:07 20.03, -89.57 07/14/2015 07:39:32 19.99, -89.41 17.53 395
5 07/14/2015 09:20:47 35.26,-110.42 07/14/2015 09:16:40 35.31,-110.68 24.23 247
6 07/17/2015 06:30:44 46.54, -65.03 07/17/2015 06:34:43 46.90, -67.03 157.73 239
7 07/17/2015 08:08:40
